owner,sensor,date,latitude,longitude,vertical_datum,wind_speed,wind_to_direction,wind_speed_of_gust,qcFlag 
ADCP,ioos:station:wmo:42364:1,2007-11-01T00:00:00Z,29.0600,-88.0900,122.0,7.0,40.0,99.0,'11111222,11111222,11144222' 
ADCP,ioos:station:wmo:42364:1,2007-11-01T01:00:00Z,29.0600,-88.0900,122.0,5.0,10.0,99.0,'11111222,11111222,11144222' 
ADCP,ioos:station:wmo:42364:1,2007-11-01T02:00:00Z,29.0600,-88.0900,122.0,9.0,30.0,99.0,'11111222,11111222,11144222' 
ADCP,ioos:station:wmo:42364:1,2007-11-01T03:00:00Z,29.0600,-88.0900,122.0,6.0,50.0,99.0,'11111222,11111222,11144222' 
ADCP,ioos:station:wmo:42364:1,2007-11-01T04:00:00Z,29.0600,-88.0900,122.0,3.0,50.0,99.0,'11111222,11111222,11144222' 
ADCP,ioos:station:wmo:42364:1,2007-11-01T05:00:00Z,29.0600,-88.0900,122.0,9.0,40.0,99.0,'11111222,11111222,11144222' 
ADCP,ioos:station:wmo:42364:1,2007-11-01T06:00:00Z,29.0600,-88.0900,122.0,10.0,50.0,99.0,'11111222,11111222,11144222' 
ADCP,ioos:station:wmo:42364:1,2007-11-01T07:00:00Z,29.0600,-88.0900,122.0,10.0,40.0,99.0,'11111222,11111222,11144222' 
ADCP,ioos:station:wmo:42364:1,2007-11-01T08:00:00Z,29.0600,-88.0900,122.0,10.0,40.0,99.0,'11111222,11111222,11144222' 
ADCP,ioos:station:wmo:42364:1,2007-11-01T09:00:00Z,29.0600,-88.0900,122.0,9.0,40.0,99.0,'11111222,11111222,11144222' 
ADCP,ioos:station:wmo:42364:1,2007-11-01T10:00:00Z,29.0600,-88.0900,122.0,8.0,40.0,99.0,'11111222,11111222,11144222' 
ADCP,ioos:station:wmo:42364:1,2007-11-01T11:00:00Z,29.0600,-88.0900,122.0,9.0,30.0,99.0,'11111222,11111222,11144222' 
ADCP,ioos:station:wmo:42364:1,2007-11-01T12:00:00Z,29.0600,-88.0900,122.0,8.0,30.0,99.0,'11111222,11111222,11144222' 
ADCP,ioos:station:wmo:42364:1,2007-11-01T13:00:00Z,29.0600,-88.0900,122.0,9.0,40.0,99.0,'11111222,11111222,11144222' 
ADCP,ioos:station:wmo:42364:1,2007-11-01T14:00:00Z,29.0600,-88.0900,122.0,11.0,30.0,99.0,'11111222,11111222,11144222' 
ADCP,ioos:station:wmo:42364:1,2007-11-01T15:00:00Z,29.0600,-88.0900,122.0,7.0,30.0,99.0,'11111222,11111222,11144222' 
ADCP,ioos:station:wmo:42364:1,2007-11-01T16:00:00Z,29.0600,-88.0900,122.0,8.0,40.0,99.0,'11111222,11111222,11144222' 
ADCP,ioos:station:wmo:42364:1,2007-11-01T17:00:00Z,29.0600,-88.0900,122.0,8.0,30.0,99.0,'11111222,11111222,11144222' 
ADCP,ioos:station:wmo:42364:1,2007-11-01T18:00:00Z,29.0600,-88.0900,122.0,8.0,30.0,99.0,'11111222,11111222,11144222' 
ADCP,ioos:station:wmo:42364:1,2007-11-01T19:00:00Z,29.0600,-88.0900,122.0,9.0,40.0,99.0,'11111222,11111222,11144222' 
ADCP,ioos:station:wmo:42364:1,2007-11-01T20:00:00Z,29.0600,-88.0900,122.0,7.0,30.0,99.0,'11111222,11111222,11144222' 
ADCP,ioos:station:wmo:42364:1,2007-11-01T21:00:00Z,29.0600,-88.0900,122.0,5.0,20.0,99.0,'11111222,11111222,11144222' 
ADCP,ioos:station:wmo:42364:1,2007-11-01T22:00:00Z,29.0600,-88.0900,122.0,10.0,10.0,99.0,'11111222,11111222,11144222' 
ADCP,ioos:station:wmo:42364:1,2007-11-01T23:00:00Z,29.0600,-88.0900,122.0,6.0,10.0,99.0,'11111222,11111222,11144222' 
ADCP,ioos:station:wmo:42364:1,2007-11-02T00:00:00Z,29.0600,-88.0900,122.0,7.0,360.0,99.0,'11111222,11144222,11144222' 
ADCP,ioos:station:wmo:42364:1,2007-11-02T01:00:00Z,29.0600,-88.0900,122.0,6.0,20.0,99.0,'11111222,11111222,11144222' 
ADCP,ioos:station:wmo:42364:1,2007-11-02T02:00:00Z,29.0600,-88.0900,122.0,7.0,10.0,99.0,'11111222,11111222,11144222' 
ADCP,ioos:station:wmo:42364:1,2007-11-02T03:00:00Z,29.0600,-88.0900,122.0,10.0,40.0,99.0,'11111222,11111222,11144222' 
ADCP,ioos:station:wmo:42364:1,2007-11-02T04:00:00Z,29.0600,-88.0900,122.0,8.0,40.0,99.0,'11111222,11111222,11144222' 
ADCP,ioos:station:wmo:42364:1,2007-11-02T05:00:00Z,29.0600,-88.0900,122.0,9.0,30.0,99.0,'11111222,11111222,11144222' 
ADCP,ioos:station:wmo:42364:1,2007-11-02T06:00:00Z,29.0600,-88.0900,122.0,9.0,40.0,99.0,'11111222,11111222,11144222' 
ADCP,ioos:station:wmo:42364:1,2007-11-02T07:00:00Z,29.0600,-88.0900,122.0,10.0,30.0,99.0,'11111222,11111222,11144222' 
ADCP,ioos:station:wmo:42364:1,2007-11-02T08:00:00Z,29.0600,-88.0900,122.0,6.0,40.0,99.0,'11111222,11111222,11144222' 
ADCP,ioos:station:wmo:42364:1,2007-11-02T09:00:00Z,29.0600,-88.0900,122.0,8.0,40.0,99.0,'11111222,11111222,11144222' 
ADCP,ioos:station:wmo:42364:1,2007-11-02T10:00:00Z,29.0600,-88.0900,122.0,9.0,40.0,99.0,'11111222,11111222,11144222' 
ADCP,ioos:station:wmo:42364:1,2007-11-02T11:00:00Z,29.0600,-88.0900,122.0,6.0,30.0,99.0,'11111222,11111222,11144222' 
ADCP,ioos:station:wmo:42364:1,2007-11-02T12:00:00Z,29.0600,-88.0900,122.0,7.0,10.0,99.0,'11111222,11111222,11144222' 
ADCP,ioos:station:wmo:42364:1,2007-11-02T13:00:00Z,29.0600,-88.0900,122.0,10.0,40.0,99.0,'11111222,11111222,11144222' 
ADCP,ioos:station:wmo:42364:1,2007-11-02T14:00:00Z,29.0600,-88.0900,122.0,6.0,30.0,99.0,'11111222,11111222,11144222' 
ADCP,ioos:station:wmo:42364:1,2007-11-02T15:00:00Z,29.0600,-88.0900,122.0,7.0,40.0,99.0,'11111222,11111222,11144222' 
ADCP,ioos:station:wmo:42364:1,2007-11-02T16:00:00Z,29.0600,-88.0900,122.0,6.0,10.0,99.0,'11111222,11111222,11144222' 
ADCP,ioos:station:wmo:42364:1,2007-11-02T17:00:00Z,29.0600,-88.0900,122.0,4.0,40.0,99.0,'11111222,11111222,11144222' 
ADCP,ioos:station:wmo:42364:1,2007-11-02T18:00:00Z,29.0600,-88.0900,122.0,7.0,40.0,99.0,'11111222,11111222,11144222' 
ADCP,ioos:station:wmo:42364:1,2007-11-02T19:00:00Z,29.0600,-88.0900,122.0,7.0,360.0,99.0,'11111222,11144222,11144222' 
ADCP,ioos:station:wmo:42364:1,2007-11-02T20:00:00Z,29.0600,-88.0900,122.0,4.0,10.0,99.0,'11111222,11111222,11144222' 
ADCP,ioos:station:wmo:42364:1,2007-11-02T21:00:00Z,29.0600,-88.0900,122.0,5.0,10.0,99.0,'11111222,11111222,11144222' 
ADCP,ioos:station:wmo:42364:1,2007-11-02T22:00:00Z,29.0600,-88.0900,122.0,5.0,10.0,99.0,'11111222,11111222,11144222' 
ADCP,ioos:station:wmo:42364:1,2007-11-02T23:00:00Z,29.0600,-88.0900,122.0,4.0,20.0,99.0,'11111222,11111222,11144222' 
ADCP,ioos:station:wmo:42364:1,2007-11-03T00:00:00Z,29.0600,-88.0900,122.0,4.0,360.0,99.0,'11111222,11144222,11144222' 
ADCP,ioos:station:wmo:42364:1,2007-11-03T01:00:00Z,29.0600,-88.0900,122.0,5.0,20.0,99.0,'11111222,11111222,11144222' 
ADCP,ioos:station:wmo:42364:1,2007-11-03T02:00:00Z,29.0600,-88.0900,122.0,4.0,10.0,99.0,'11111222,11111222,11144222' 
ADCP,ioos:station:wmo:42364:1,2007-11-03T03:00:00Z,29.0600,-88.0900,122.0,2.0,360.0,99.0,'11111222,11144222,11144222' 
ADCP,ioos:station:wmo:42364:1,2007-11-03T04:00:00Z,29.0600,-88.0900,122.0,8.0,10.0,99.0,'11111222,11111222,11144222' 
ADCP,ioos:station:wmo:42364:1,2007-11-03T05:00:00Z,29.0600,-88.0900,122.0,6.0,10.0,99.0,'11111222,11111222,11144222' 
ADCP,ioos:station:wmo:42364:1,2007-11-03T06:00:00Z,29.0600,-88.0900,122.0,5.0,10.0,99.0,'11111222,11111222,11144222' 
ADCP,ioos:station:wmo:42364:1,2007-11-03T07:00:00Z,29.0600,-88.0900,122.0,6.0,40.0,99.0,'11111222,11111222,11144222' 
ADCP,ioos:station:wmo:42364:1,2007-11-03T08:00:00Z,29.0600,-88.0900,122.0,6.0,10.0,99.0,'11111222,11111222,11144222' 
ADCP,ioos:station:wmo:42364:1,2007-11-03T09:00:00Z,29.0600,-88.0900,122.0,7.0,20.0,99.0,'11111222,11111222,11144222' 
ADCP,ioos:station:wmo:42364:1,2007-11-03T10:00:00Z,29.0600,-88.0900,122.0,7.0,30.0,99.0,'11111222,11111222,11144222' 
ADCP,ioos:station:wmo:42364:1,2007-11-03T11:00:00Z,29.0600,-88.0900,122.0,3.0,30.0,99.0,'11111222,11111222,11144222' 
ADCP,ioos:station:wmo:42364:1,2007-11-03T12:00:00Z,29.0600,-88.0900,122.0,7.0,10.0,99.0,'11111222,11111222,11144222' 
ADCP,ioos:station:wmo:42364:1,2007-11-03T13:00:00Z,29.0600,-88.0900,122.0,5.0,20.0,99.0,'11111222,11111222,11144222' 
ADCP,ioos:station:wmo:42364:1,2007-11-03T14:00:00Z,29.0600,-88.0900,122.0,5.0,360.0,99.0,'11111222,11144222,11144222' 
ADCP,ioos:station:wmo:42364:1,2007-11-03T15:00:00Z,29.0600,-88.0900,122.0,5.0,360.0,99.0,'11111222,11144222,11144222' 
ADCP,ioos:station:wmo:42364:1,2007-11-03T16:00:00Z,29.0600,-88.0900,122.0,2.0,350.0,99.0,'11111222,11111222,11144222' 
ADCP,ioos:station:wmo:42364:1,2007-11-03T17:00:00Z,29.0600,-88.0900,122.0,2.0,210.0,99.0,'11111222,11111222,11144222' 
ADCP,ioos:station:wmo:42364:1,2007-11-03T18:00:00Z,29.0600,-88.0900,122.0,2.0,90.0,99.0,'11111222,11111222,11144222' 
ADCP,ioos:station:wmo:42364:1,2007-11-03T19:00:00Z,29.0600,-88.0900,122.0,1.0,170.0,99.0,'11111222,11111222,11144222' 
ADCP,ioos:station:wmo:42364:1,2007-11-03T20:00:00Z,29.0600,-88.0900,122.0,0.0,0.0,99.0,'11111222,11111222,11144222' 
ADCP,ioos:station:wmo:42364:1,2007-11-03T21:00:00Z,29.0600,-88.0900,122.0,0.0,0.0,99.0,'11111222,11111222,11144222' 
ADCP,ioos:station:wmo:42364:1,2007-11-03T22:00:00Z,29.0600,-88.0900,122.0,0.0,0.0,99.0,'11111222,11111222,11144222' 
ADCP,ioos:station:wmo:42364:1,2007-11-03T23:00:00Z,29.0600,-88.0900,122.0,0.0,0.0,99.0,'11111222,11111222,11144222' 
ADCP,ioos:station:wmo:42364:1,2007-11-04T00:00:00Z,29.0600,-88.0900,122.0,0.0,0.0,99.0,'11111222,11111222,11144222' 
ADCP,ioos:station:wmo:42364:1,2007-11-04T01:00:00Z,29.0600,-88.0900,122.0,1.0,290.0,99.0,'11111222,11111222,11144222' 
ADCP,ioos:station:wmo:42364:1,2007-11-04T02:00:00Z,29.0600,-88.0900,122.0,4.0,360.0,99.0,'11111222,11144222,11144222' 
ADCP,ioos:station:wmo:42364:1,2007-11-04T03:00:00Z,29.0600,-88.0900,122.0,1.0,190.0,99.0,'11111222,11111222,11144222' 
ADCP,ioos:station:wmo:42364:1,2007-11-04T04:00:00Z,29.0600,-88.0900,122.0,4.0,340.0,99.0,'11111222,11111222,11144222' 
ADCP,ioos:station:wmo:42364:1,2007-11-04T05:00:00Z,29.0600,-88.0900,122.0,1.0,180.0,99.0,'11111222,11111222,11144222' 
ADCP,ioos:station:wmo:42364:1,2007-11-04T06:00:00Z,29.0600,-88.0900,122.0,5.0,30.0,99.0,'11111222,11111222,11144222' 
ADCP,ioos:station:wmo:42364:1,2007-11-04T07:00:00Z,29.0600,-88.0900,122.0,6.0,360.0,99.0,'11111222,11144222,11144222' 
ADCP,ioos:station:wmo:42364:1,2007-11-04T08:00:00Z,29.0600,-88.0900,122.0,5.0,10.0,99.0,'11111222,11111222,11144222' 
ADCP,ioos:station:wmo:42364:1,2007-11-04T09:00:00Z,29.0600,-88.0900,122.0,5.0,10.0,99.0,'11111222,11111222,11144222' 
ADCP,ioos:station:wmo:42364:1,2007-11-04T10:00:00Z,29.0600,-88.0900,122.0,6.0,30.0,99.0,'11111222,11111222,11144222' 
ADCP,ioos:station:wmo:42364:1,2007-11-04T11:00:00Z,29.0600,-88.0900,122.0,4.0,40.0,99.0,'11111222,11111222,11144222' 
ADCP,ioos:station:wmo:42364:1,2007-11-04T12:00:00Z,29.0600,-88.0900,122.0,7.0,10.0,99.0,'11111222,11111222,11144222' 
ADCP,ioos:station:wmo:42364:1,2007-11-04T13:00:00Z,29.0600,-88.0900,122.0,5.0,30.0,99.0,'11111222,11111222,11144222' 
ADCP,ioos:station:wmo:42364:1,2007-11-04T14:00:00Z,29.0600,-88.0900,122.0,6.0,40.0,99.0,'11111222,11111222,11144222' 
ADCP,ioos:station:wmo:42364:1,2007-11-04T15:00:00Z,29.0600,-88.0900,122.0,7.0,10.0,99.0,'11111222,11111222,11144222' 
ADCP,ioos:station:wmo:42364:1,2007-11-04T16:00:00Z,29.0600,-88.0900,122.0,8.0,30.0,99.0,'11111222,11111222,11144222' 
ADCP,ioos:station:wmo:42364:1,2007-11-04T17:00:00Z,29.0600,-88.0900,122.0,5.0,360.0,99.0,'11111222,11144222,11144222' 
ADCP,ioos:station:wmo:42364:1,2007-11-04T18:00:00Z,29.0600,-88.0900,122.0,5.0,360.0,99.0,'11111222,11144222,11144222' 
ADCP,ioos:station:wmo:42364:1,2007-11-04T19:00:00Z,29.0600,-88.0900,122.0,6.0,10.0,99.0,'11111222,11111222,11144222' 
ADCP,ioos:station:wmo:42364:1,2007-11-04T20:00:00Z,29.0600,-88.0900,122.0,5.0,10.0,99.0,'11111222,11111222,11144222' 
ADCP,ioos:station:wmo:42364:1,2007-11-04T21:00:00Z,29.0600,-88.0900,122.0,4.0,10.0,99.0,'11111222,11111222,11144222' 
ADCP,ioos:station:wmo:42364:1,2007-11-04T22:00:00Z,29.0600,-88.0900,122.0,5.0,10.0,99.0,'11111222,11111222,11144222' 
ADCP,ioos:station:wmo:42364:1,2007-11-04T23:00:00Z,29.0600,-88.0900,122.0,2.0,290.0,99.0,'11111222,11111222,11144222' 
ADCP,ioos:station:wmo:42364:1,2007-11-05T00:00:00Z,29.0600,-88.0900,122.0,5.0,30.0,99.0,'11111222,11111222,11144222' 
ADCP,ioos:station:wmo:42364:1,2007-11-05T01:00:00Z,29.0600,-88.0900,122.0,3.0,30.0,99.0,'11111222,11111222,11144222' 
ADCP,ioos:station:wmo:42364:1,2007-11-05T02:00:00Z,29.0600,-88.0900,122.0,4.0,10.0,99.0,'11111222,11111222,11144222' 
ADCP,ioos:station:wmo:42364:1,2007-11-05T03:00:00Z,29.0600,-88.0900,122.0,3.0,360.0,99.0,'11111222,11144222,11144222' 
ADCP,ioos:station:wmo:42364:1,2007-11-05T04:00:00Z,29.0600,-88.0900,122.0,6.0,30.0,99.0,'11111222,11111222,11144222' 
ADCP,ioos:station:wmo:42364:1,2007-11-05T05:00:00Z,29.0600,-88.0900,122.0,4.0,20.0,99.0,'11111222,11111222,11144222' 
ADCP,ioos:station:wmo:42364:1,2007-11-05T06:00:00Z,29.0600,-88.0900,122.0,5.0,50.0,99.0,'11111222,11111222,11144222' 
ADCP,ioos:station:wmo:42364:1,2007-11-05T07:00:00Z,29.0600,-88.0900,122.0,3.0,60.0,99.0,'11111222,11111222,11144222' 
ADCP,ioos:station:wmo:42364:1,2007-11-05T08:00:00Z,29.0600,-88.0900,122.0,2.0,70.0,99.0,'11111222,11111222,11144222' 
ADCP,ioos:station:wmo:42364:1,2007-11-05T09:00:00Z,29.0600,-88.0900,122.0,3.0,30.0,99.0,'11111222,11111222,11144222' 
ADCP,ioos:station:wmo:42364:1,2007-11-05T10:00:00Z,29.0600,-88.0900,122.0,3.0,40.0,99.0,'11111222,11111222,11144222' 
ADCP,ioos:station:wmo:42364:1,2007-11-05T11:00:00Z,29.0600,-88.0900,122.0,1.0,50.0,99.0,'11111222,11111222,11144222' 
ADCP,ioos:station:wmo:42364:1,2007-11-05T12:00:00Z,29.0600,-88.0900,122.0,2.0,50.0,99.0,'11111222,11111222,11144222' 
ADCP,ioos:station:wmo:42364:1,2007-11-05T13:00:00Z,29.0600,-88.0900,122.0,3.0,60.0,99.0,'11111222,11111222,11144222' 
ADCP,ioos:station:wmo:42364:1,2007-11-05T14:00:00Z,29.0600,-88.0900,122.0,3.0,50.0,99.0,'11111222,11111222,11144222' 
ADCP,ioos:station:wmo:42364:1,2007-11-05T15:00:00Z,29.0600,-88.0900,122.0,1.0,60.0,99.0,'11111222,11111222,11144222' 
ADCP,ioos:station:wmo:42364:1,2007-11-05T16:00:00Z,29.0600,-88.0900,122.0,4.0,70.0,99.0,'11111222,11111222,11144222' 
ADCP,ioos:station:wmo:42364:1,2007-11-05T17:00:00Z,29.0600,-88.0900,122.0,2.0,100.0,99.0,'11111222,11111222,11144222' 
ADCP,ioos:station:wmo:42364:1,2007-11-05T18:00:00Z,29.0600,-88.0900,122.0,2.0,110.0,99.0,'11111222,11111222,11144222' 
ADCP,ioos:station:wmo:42364:1,2007-11-05T19:00:00Z,29.0600,-88.0900,122.0,3.0,100.0,99.0,'11111222,11111222,11144222' 
ADCP,ioos:station:wmo:42364:1,2007-11-05T20:00:00Z,29.0600,-88.0900,122.0,3.0,130.0,99.0,'11111222,11111222,11144222' 
ADCP,ioos:station:wmo:42364:1,2007-11-05T21:00:00Z,29.0600,-88.0900,122.0,3.0,150.0,99.0,'11111222,11111222,11144222' 
ADCP,ioos:station:wmo:42364:1,2007-11-05T22:00:00Z,29.0600,-88.0900,122.0,3.0,170.0,99.0,'11111222,11111222,11144222' 
ADCP,ioos:station:wmo:42364:1,2007-11-05T23:00:00Z,29.0600,-88.0900,122.0,2.0,150.0,99.0,'11111222,11111222,11144222' 
ADCP,ioos:station:wmo:42364:1,2007-11-06T00:00:00Z,29.0600,-88.0900,122.0,4.0,190.0,99.0,'11111222,11111222,11144222' 
ADCP,ioos:station:wmo:42364:1,2007-11-06T01:00:00Z,29.0600,-88.0900,122.0,4.0,190.0,99.0,'11111222,11111222,11144222' 
ADCP,ioos:station:wmo:42364:1,2007-11-06T02:00:00Z,29.0600,-88.0900,122.0,4.0,190.0,99.0,'11111222,11111222,11144222' 
ADCP,ioos:station:wmo:42364:1,2007-11-06T03:00:00Z,29.0600,-88.0900,122.0,5.0,180.0,99.0,'11111222,11111222,11144222' 
ADCP,ioos:station:wmo:42364:1,2007-11-06T04:00:00Z,29.0600,-88.0900,122.0,5.0,200.0,99.0,'11111222,11111222,11144222' 
ADCP,ioos:station:wmo:42364:1,2007-11-06T05:00:00Z,29.0600,-88.0900,122.0,5.0,190.0,99.0,'11111222,11111222,11144222' 
ADCP,ioos:station:wmo:42364:1,2007-11-06T06:00:00Z,29.0600,-88.0900,122.0,4.0,220.0,99.0,'11111222,11111222,11144222' 
ADCP,ioos:station:wmo:42364:1,2007-11-06T07:00:00Z,29.0600,-88.0900,122.0,3.0,250.0,99.0,'11111222,11111222,11144222' 
ADCP,ioos:station:wmo:42364:1,2007-11-06T08:00:00Z,29.0600,-88.0900,122.0,3.0,240.0,99.0,'11111222,11111222,11144222' 
ADCP,ioos:station:wmo:42364:1,2007-11-06T09:00:00Z,29.0600,-88.0900,122.0,1.0,330.0,99.0,'11111222,11111222,11144222' 
ADCP,ioos:station:wmo:42364:1,2007-11-06T10:00:00Z,29.0600,-88.0900,122.0,1.0,340.0,99.0,'11111222,11111222,11144222' 
ADCP,ioos:station:wmo:42364:1,2007-11-06T11:00:00Z,29.0600,-88.0900,122.0,1.0,30.0,99.0,'11111222,11111222,11144222' 
ADCP,ioos:station:wmo:42364:1,2007-11-06T12:00:00Z,29.0600,-88.0900,122.0,0.0,0.0,99.0,'11111222,11111222,11144222' 
ADCP,ioos:station:wmo:42364:1,2007-11-06T13:00:00Z,29.0600,-88.0900,122.0,0.0,0.0,99.0,'11111222,11111222,11144222' 
ADCP,ioos:station:wmo:42364:1,2007-11-06T14:00:00Z,29.0600,-88.0900,122.0,0.0,0.0,99.0,'11111222,11111222,11144222' 
ADCP,ioos:station:wmo:42364:1,2007-11-06T15:00:00Z,29.0600,-88.0900,122.0,1.0,150.0,99.0,'11111222,11111222,11144222' 
ADCP,ioos:station:wmo:42364:1,2007-11-06T16:00:00Z,29.0600,-88.0900,122.0,1.0,130.0,99.0,'11111222,11111222,11144222' 
ADCP,ioos:station:wmo:42364:1,2007-11-06T17:00:00Z,29.0600,-88.0900,122.0,0.0,0.0,99.0,'11111222,11111222,11144222' 
ADCP,ioos:station:wmo:42364:1,2007-11-06T18:00:00Z,29.0600,-88.0900,122.0,0.0,0.0,99.0,'11111222,11111222,11144222' 
ADCP,ioos:station:wmo:42364:1,2007-11-06T19:00:00Z,29.0600,-88.0900,122.0,0.0,0.0,99.0,'11111222,11111222,11144222' 
ADCP,ioos:station:wmo:42364:1,2007-11-06T20:00:00Z,29.0600,-88.0900,122.0,0.0,0.0,99.0,'11111222,11111222,11144222' 
ADCP,ioos:station:wmo:42364:1,2007-11-06T21:00:00Z,29.0600,-88.0900,122.0,1.0,150.0,99.0,'11111222,11111222,11144222' 
ADCP,ioos:station:wmo:42364:1,2007-11-06T22:00:00Z,29.0600,-88.0900,122.0,2.0,120.0,99.0,'11111222,11111222,11144222' 
ADCP,ioos:station:wmo:42364:1,2007-11-06T23:00:00Z,29.0600,-88.0900,122.0,0.0,0.0,99.0,'11111222,11111222,11144222' 
ADCP,ioos:station:wmo:42364:1,2007-11-07T00:00:00Z,29.0600,-88.0900,122.0,0.0,0.0,99.0,'11111222,11111222,11144222' 
ADCP,ioos:station:wmo:42364:1,2007-11-07T01:00:00Z,29.0600,-88.0900,122.0,0.0,0.0,99.0,'11111222,11111222,11144222' 
ADCP,ioos:station:wmo:42364:1,2007-11-07T02:00:00Z,29.0600,-88.0900,122.0,11.0,360.0,99.0,'11111222,11144222,11144222' 
ADCP,ioos:station:wmo:42364:1,2007-11-07T03:00:00Z,29.0600,-88.0900,122.0,14.0,360.0,99.0,'11111222,11144222,11144222' 
ADCP,ioos:station:wmo:42364:1,2007-11-07T04:00:00Z,29.0600,-88.0900,122.0,13.0,360.0,99.0,'11111222,11144222,11144222' 
ADCP,ioos:station:wmo:42364:1,2007-11-07T05:00:00Z,29.0600,-88.0900,122.0,12.0,40.0,99.0,'11111222,11111222,11144222' 
ADCP,ioos:station:wmo:42364:1,2007-11-07T06:00:00Z,29.0600,-88.0900,122.0,12.0,10.0,99.0,'11111222,11111222,11144222' 
ADCP,ioos:station:wmo:42364:1,2007-11-07T07:00:00Z,29.0600,-88.0900,122.0,8.0,30.0,99.0,'11111222,11111222,11144222' 
ADCP,ioos:station:wmo:42364:1,2007-11-07T08:00:00Z,29.0600,-88.0900,122.0,12.0,40.0,99.0,'11111222,11111222,11144222' 
ADCP,ioos:station:wmo:42364:1,2007-11-07T09:00:00Z,29.0600,-88.0900,122.0,6.0,30.0,99.0,'11111222,11111222,11144222' 
ADCP,ioos:station:wmo:42364:1,2007-11-07T10:00:00Z,29.0600,-88.0900,122.0,10.0,30.0,99.0,'11111222,11111222,11144222' 
ADCP,ioos:station:wmo:42364:1,2007-11-07T11:00:00Z,29.0600,-88.0900,122.0,7.0,40.0,99.0,'11111222,11111222,11144222' 
ADCP,ioos:station:wmo:42364:1,2007-11-07T12:00:00Z,29.0600,-88.0900,122.0,9.0,30.0,99.0,'11111222,11111222,11144222' 
ADCP,ioos:station:wmo:42364:1,2007-11-07T13:00:00Z,29.0600,-88.0900,122.0,10.0,40.0,99.0,'11111222,11111222,11144222' 
ADCP,ioos:station:wmo:42364:1,2007-11-07T14:00:00Z,29.0600,-88.0900,122.0,10.0,30.0,99.0,'11111222,11111222,11144222' 
ADCP,ioos:station:wmo:42364:1,2007-11-07T15:00:00Z,29.0600,-88.0900,122.0,10.0,30.0,99.0,'11111222,11111222,11144222' 
ADCP,ioos:station:wmo:42364:1,2007-11-07T16:00:00Z,29.0600,-88.0900,122.0,10.0,50.0,99.0,'11111222,11111222,11144222' 
ADCP,ioos:station:wmo:42364:1,2007-11-07T17:00:00Z,29.0600,-88.0900,122.0,10.0,40.0,99.0,'11111222,11111222,11144222' 
ADCP,ioos:station:wmo:42364:1,2007-11-07T18:00:00Z,29.0600,-88.0900,122.0,9.0,50.0,99.0,'11111222,11111222,11144222' 
ADCP,ioos:station:wmo:42364:1,2007-11-07T19:00:00Z,29.0600,-88.0900,122.0,8.0,40.0,99.0,'11111222,11111222,11144222' 
ADCP,ioos:station:wmo:42364:1,2007-11-07T20:00:00Z,29.0600,-88.0900,122.0,7.0,360.0,99.0,'11111222,11144222,11144222' 
ADCP,ioos:station:wmo:42364:1,2007-11-07T21:00:00Z,29.0600,-88.0900,122.0,6.0,340.0,99.0,'11111222,11111222,11144222' 
ADCP,ioos:station:wmo:42364:1,2007-11-07T22:00:00Z,29.0600,-88.0900,122.0,8.0,30.0,99.0,'11111222,11111222,11144222' 
ADCP,ioos:station:wmo:42364:1,2007-11-07T23:00:00Z,29.0600,-88.0900,122.0,4.0,20.0,99.0,'11111222,11111222,11144222' 
ADCP,ioos:station:wmo:42364:1,2007-11-08T00:00:00Z,29.0600,-88.0900,122.0,8.0,10.0,99.0,'11111222,11111222,11144222' 
ADCP,ioos:station:wmo:42364:1,2007-11-08T01:00:00Z,29.0600,-88.0900,122.0,5.0,10.0,99.0,'11111222,11111222,11144222' 
ADCP,ioos:station:wmo:42364:1,2007-11-08T02:00:00Z,29.0600,-88.0900,122.0,8.0,360.0,99.0,'11111222,11144222,11144222' 
ADCP,ioos:station:wmo:42364:1,2007-11-08T03:00:00Z,29.0600,-88.0900,122.0,7.0,40.0,99.0,'11111222,11111222,11144222' 
ADCP,ioos:station:wmo:42364:1,2007-11-08T04:00:00Z,29.0600,-88.0900,122.0,7.0,40.0,99.0,'11111222,11111222,11144222' 
ADCP,ioos:station:wmo:42364:1,2007-11-08T05:00:00Z,29.0600,-88.0900,122.0,4.0,90.0,99.0,'11111222,11111222,11144222' 
ADCP,ioos:station:wmo:42364:1,2007-11-08T06:00:00Z,29.0600,-88.0900,122.0,5.0,360.0,99.0,'11111222,11144222,11144222' 
ADCP,ioos:station:wmo:42364:1,2007-11-08T07:00:00Z,29.0600,-88.0900,122.0,4.0,40.0,99.0,'11111222,11111222,11144222' 
ADCP,ioos:station:wmo:42364:1,2007-11-08T08:00:00Z,29.0600,-88.0900,122.0,7.0,40.0,99.0,'11111222,11111222,11144222' 
ADCP,ioos:station:wmo:42364:1,2007-11-08T09:00:00Z,29.0600,-88.0900,122.0,7.0,20.0,99.0,'11111222,11111222,11144222' 
ADCP,ioos:station:wmo:42364:1,2007-11-08T10:00:00Z,29.0600,-88.0900,122.0,7.0,40.0,99.0,'11111222,11111222,11144222' 
ADCP,ioos:station:wmo:42364:1,2007-11-08T11:00:00Z,29.0600,-88.0900,122.0,5.0,30.0,99.0,'11111222,11111222,11144222' 
ADCP,ioos:station:wmo:42364:1,2007-11-08T12:00:00Z,29.0600,-88.0900,122.0,3.0,20.0,99.0,'11111222,11111222,11144222' 
ADCP,ioos:station:wmo:42364:1,2007-11-08T13:00:00Z,29.0600,-88.0900,122.0,4.0,20.0,99.0,'11111222,11111222,11144222' 
ADCP,ioos:station:wmo:42364:1,2007-11-08T14:00:00Z,29.0600,-88.0900,122.0,2.0,50.0,99.0,'11111222,11111222,11144222' 
ADCP,ioos:station:wmo:42364:1,2007-11-08T15:00:00Z,29.0600,-88.0900,122.0,3.0,10.0,99.0,'11111222,11111222,11144222' 
ADCP,ioos:station:wmo:42364:1,2007-11-08T16:00:00Z,29.0600,-88.0900,122.0,1.0,10.0,99.0,'11111222,11111222,11144222' 
ADCP,ioos:station:wmo:42364:1,2007-11-08T17:00:00Z,29.0600,-88.0900,122.0,4.0,50.0,99.0,'11111222,11111222,11144222' 
ADCP,ioos:station:wmo:42364:1,2007-11-08T18:00:00Z,29.0600,-88.0900,122.0,3.0,40.0,99.0,'11111222,11111222,11144222' 
ADCP,ioos:station:wmo:42364:1,2007-11-08T19:00:00Z,29.0600,-88.0900,122.0,4.0,360.0,99.0,'11111222,11144222,11144222' 
ADCP,ioos:station:wmo:42364:1,2007-11-08T20:00:00Z,29.0600,-88.0900,122.0,4.0,360.0,99.0,'11111222,11144222,11144222' 
ADCP,ioos:station:wmo:42364:1,2007-11-08T21:00:00Z,29.0600,-88.0900,122.0,0.0,0.0,99.0,'11111222,11111222,11144222' 
ADCP,ioos:station:wmo:42364:1,2007-11-08T22:00:00Z,29.0600,-88.0900,122.0,0.0,0.0,99.0,'11111222,11111222,11144222' 
ADCP,ioos:station:wmo:42364:1,2007-11-08T23:00:00Z,29.0600,-88.0900,122.0,4.0,10.0,99.0,'11111222,11111222,11144222' 
ADCP,ioos:station:wmo:42364:1,2007-11-09T00:00:00Z,29.0600,-88.0900,122.0,4.0,20.0,99.0,'11111222,11111222,11144222' 
ADCP,ioos:station:wmo:42364:1,2007-11-09T01:00:00Z,29.0600,-88.0900,122.0,4.0,50.0,99.0,'11111222,11111222,11144222' 
ADCP,ioos:station:wmo:42364:1,2007-11-09T02:00:00Z,29.0600,-88.0900,122.0,3.0,10.0,99.0,'11111222,11111222,11144222' 
ADCP,ioos:station:wmo:42364:1,2007-11-09T03:00:00Z,29.0600,-88.0900,122.0,3.0,50.0,99.0,'11111222,11111222,11144222' 
ADCP,ioos:station:wmo:42364:1,2007-11-09T04:00:00Z,29.0600,-88.0900,122.0,3.0,40.0,99.0,'11111222,11111222,11144222' 
ADCP,ioos:station:wmo:42364:1,2007-11-09T05:00:00Z,29.0600,-88.0900,122.0,3.0,50.0,99.0,'11111222,11111222,11144222' 
ADCP,ioos:station:wmo:42364:1,2007-11-09T06:00:00Z,29.0600,-88.0900,122.0,1.0,60.0,99.0,'11111222,11111222,11144222' 
ADCP,ioos:station:wmo:42364:1,2007-11-09T07:00:00Z,29.0600,-88.0900,122.0,2.0,70.0,99.0,'11111222,11111222,11144222' 
ADCP,ioos:station:wmo:42364:1,2007-11-09T08:00:00Z,29.0600,-88.0900,122.0,1.0,50.0,99.0,'11111222,11111222,11144222' 
ADCP,ioos:station:wmo:42364:1,2007-11-09T09:00:00Z,29.0600,-88.0900,122.0,0.0,0.0,99.0,'11111222,11111222,11144222' 